TimeCST,TemperatureF,Dew PointF,Humidity,Sea Level PressureIn,VisibilityMPH,Wind Direction,Wind SpeedMPH,Gust SpeedMPH,PrecipitationIn,Events,Conditions,WindDirDegrees,DateUTC
12:02 AM,12.2,8.6,85,29.73,1.0,WNW,31.1,40.3,0.00,Snow,Light Snow,300,2013-01-12 06:02:00
12:53 AM,12.0,7.0,80,29.86,1.5,WNW,28.8,40.3,0.00,Snow,Light Snow,300,2013-01-12 06:53:00
1:25 AM,12.2,6.8,79,29.78,2.0,WNW,25.3,38.0,0.00,Snow,Light Snow,300,2013-01-12 07:25:00
1:43 AM,10.4,6.8,85,29.79,1.8,WNW,24.2,39.1,0.00,Snow,Light Snow,300,2013-01-12 07:43:00
1:49 AM,10.4,6.8,85,29.80,2.5,WNW,25.3,36.8,0.00,Snow,Light Snow,300,2013-01-12 07:49:00
2:53 AM,10.0,3.9,76,29.94,7.0,WNW,27.6,33.4,0.00,,Mostly Cloudy,300,2013-01-12 08:53:00
3:33 AM,8.6,1.4,73,29.86,8.0,WNW,24.2,34.5,N/A,,Scattered Clouds,290,2013-01-12 09:33:00
3:53 AM,9.0,1.9,73,29.98,8.0,WNW,24.2,35.7,N/A,,Mostly Cloudy,290,2013-01-12 09:53:00
4:53 AM,9.0,1.9,73,29.99,10.0,WNW,20.7,-,N/A,,Overcast,290,2013-01-12 10:53:00
5:41 AM,8.6,3.2,79,29.90,2.5,WNW,21.9,-,0.00,Snow,Light Snow,290,2013-01-12 11:41:00
5:51 AM,8.6,3.2,79,29.90,3.0,WNW,19.6,-,0.00,Snow,Light Snow,300,2013-01-12 11:51:00
5:53 AM,9.0,3.9,80,30.01,3.0,WNW,19.6,26.5,0.00,Snow,Light Snow,300,2013-01-12 11:53:00
5:58 AM,8.6,3.2,79,29.90,2.0,WNW,18.4,26.5,0.00,Snow,Light Snow,300,2013-01-12 11:58:00
6:08 AM,8.6,5.0,85,29.90,1.2,WNW,21.9,27.6,0.00,Snow,Light Snow,290,2013-01-12 12:08:00
6:15 AM,8.6,3.2,79,29.90,1.5,WNW,25.3,31.1,0.00,Snow,Light Snow,300,2013-01-12 12:15:00
6:20 AM,8.6,3.2,79,29.90,2.0,NW,21.9,32.2,0.00,Snow,Light Snow,310,2013-01-12 12:20:00
6:30 AM,8.6,3.2,79,29.90,2.5,WNW,23.0,32.2,0.00,Snow,Light Snow,300,2013-01-12 12:30:00
6:37 AM,8.6,3.2,79,29.91,2.0,WNW,25.3,34.5,0.00,Snow,Light Snow,300,2013-01-12 12:37:00
6:41 AM,8.6,3.2,79,29.91,2.0,WNW,27.6,34.5,0.00,Snow,Light Snow,300,2013-01-12 12:41:00
6:53 AM,8.1,3.9,83,30.04,1.8,WNW,19.6,28.8,0.00,Snow,Light Snow,290,2013-01-12 12:53:00
7:10 AM,8.6,3.2,79,29.92,2.5,WNW,24.2,31.1,0.00,Snow,Light Snow,300,2013-01-12 13:10:00
7:19 AM,8.6,1.4,73,29.94,5.0,WNW,21.9,33.4,0.00,Snow,Light Snow,300,2013-01-12 13:19:00
7:28 AM,8.6,1.4,73,29.94,8.0,WNW,20.7,32.2,0.00,,Overcast,300,2013-01-12 13:28:00
7:53 AM,8.1,1.9,76,30.06,5.0,WNW,24.2,29.9,0.00,,Overcast,300,2013-01-12 13:53:00
8:10 AM,8.6,1.4,73,29.96,2.0,WNW,21.9,27.6,0.00,Snow,Light Snow,300,2013-01-12 14:10:00
8:19 AM,6.8,3.2,85,29.96,1.5,WNW,20.7,-,0.00,Snow,Light Snow,300,2013-01-12 14:19:00
8:48 AM,6.8,1.4,79,29.97,1.2,WNW,26.5,34.5,0.00,Snow,Light Snow,300,2013-01-12 14:48:00
8:53 AM,7.0,1.9,80,30.10,1.2,WNW,25.3,34.5,0.00,Snow,Light Snow,300,2013-01-12 14:53:00
9:05 AM,8.6,1.4,73,29.97,1.8,NW,23.0,-,0.00,Snow,Light Snow,310,2013-01-12 15:05:00
9:47 AM,8.6,1.4,73,30.00,2.5,NW,23.0,31.1,0.00,Snow,Light Snow,310,2013-01-12 15:47:00
9:53 AM,8.1,1.9,76,30.12,2.5,NW,23.0,31.1,0.00,Snow,Light Snow,310,2013-01-12 15:53:00
10:06 AM,8.6,1.4,73,30.02,3.0,WNW,23.0,29.9,0.00,Snow,Light Snow,300,2013-01-12 16:06:00
10:27 AM,8.6,1.4,73,30.04,2.5,NW,19.6,-,0.00,Snow,Light Snow,310,2013-01-12 16:27:00
10:39 AM,10.4,3.2,73,30.05,2.0,NW,23.0,28.8,0.00,Snow,Light Snow,310,2013-01-12 16:39:00
10:53 AM,10.0,3.0,73,30.16,2.0,NW,25.3,31.1,0.00,,Overcast,310,2013-01-12 16:53:00
11:13 AM,10.4,3.2,73,30.05,1.2,WNW,26.5,32.2,0.00,Snow,Light Snow,300,2013-01-12 17:13:00
11:24 AM,8.6,1.4,73,30.06,1.5,NW,25.3,33.4,0.00,Snow,Light Snow,310,2013-01-12 17:24:00
11:37 AM,8.6,3.2,79,30.06,0.8,NW,25.3,34.5,0.00,Snow,Light Snow,310,2013-01-12 17:37:00
11:53 AM,9.0,3.0,77,30.17,1.0,NW,24.2,31.1,0.00,Snow,Light Snow,310,2013-01-12 17:53:00
12:20 PM,8.6,3.2,79,30.04,0.8,NW,28.8,32.2,0.00,Snow,Light Snow,320,2013-01-12 18:20:00
12:35 PM,8.6,3.2,79,30.04,0.8,NW,24.2,-,0.00,Snow,Light Snow,320,2013-01-12 18:35:00
12:53 PM,10.0,3.0,73,30.16,0.5,NW,26.5,-,0.00,Snow,Snow,320,2013-01-12 18:53:00
1:02 PM,10.4,3.2,73,30.04,1.0,NW,25.3,33.4,0.00,Snow,Light Snow,320,2013-01-12 19:02:00
1:48 PM,10.4,3.2,73,30.06,2.0,NW,23.0,34.5,0.00,Snow,Light Snow,320,2013-01-12 19:48:00
1:50 PM,10.4,3.2,73,30.06,3.0,NW,23.0,32.2,0.00,Snow,Light Snow,320,2013-01-12 19:50:00
1:53 PM,10.0,3.0,73,30.18,4.0,NNW,18.4,28.8,0.00,Snow,Light Snow,330,2013-01-12 19:53:00
1:59 PM,10.4,3.2,73,30.06,2.0,NW,21.9,-,0.00,Snow,Light Snow,320,2013-01-12 19:59:00
2:04 PM,10.4,5.0,79,30.06,0.8,NW,20.7,28.8,0.00,Snow,Light Snow,320,2013-01-12 20:04:00
2:10 PM,10.4,3.2,73,30.07,1.0,NW,20.7,28.8,0.00,Snow,Light Snow,320,2013-01-12 20:10:00
2:30 PM,10.4,5.0,79,30.06,2.5,NW,21.9,-,0.00,Snow,Light Snow,320,2013-01-12 20:30:00
2:39 PM,10.4,3.2,73,30.07,4.0,NW,23.0,28.8,0.00,,Overcast,310,2013-01-12 20:39:00
2:48 PM,10.4,3.2,73,30.07,2.5,NW,26.5,32.2,0.00,Snow,Light Snow,320,2013-01-12 20:48:00
2:53 PM,10.0,3.9,76,30.19,2.0,NW,25.3,32.2,0.00,Snow,Light Snow,320,2013-01-12 20:53:00
3:15 PM,10.4,3.2,73,30.07,1.8,NW,25.3,-,0.00,Snow,Light Snow,320,2013-01-12 21:15:00
3:43 PM,10.4,3.2,73,30.07,1.5,NW,23.0,29.9,0.00,Snow,Light Snow,320,2013-01-12 21:43:00
3:53 PM,10.0,3.9,76,30.20,1.5,NW,24.2,33.4,0.00,Snow,Light Snow,320,2013-01-12 21:53:00
4:08 PM,10.4,3.2,73,30.08,1.5,NW,25.3,33.4,0.00,Snow,Light Snow,320,2013-01-12 22:08:00
4:17 PM,10.4,3.2,73,30.08,2.5,NW,20.7,31.1,0.00,Snow,Light Snow,320,2013-01-12 22:17:00
4:25 PM,10.4,3.2,73,30.08,3.0,NW,19.6,27.6,0.00,Snow,Light Snow,320,2013-01-12 22:25:00
4:34 PM,10.4,5.0,79,30.07,2.0,NW,25.3,28.8,0.00,Snow,Light Snow,310,2013-01-12 22:34:00
4:47 PM,8.6,3.2,79,30.07,2.5,NW,24.2,-,0.00,Snow,Blowing Snow,320,2013-01-12 22:47:00
4:53 PM,9.0,3.0,77,30.20,4.0,NW,23.0,31.1,0.00,Snow,Blowing Snow,320,2013-01-12 22:53:00
5:19 PM,8.6,1.4,73,30.08,10.0,NW,19.6,-,N/A,,Scattered Clouds,320,2013-01-12 23:19:00
5:53 PM,8.1,1.0,73,30.21,10.0,NW,17.3,-,N/A,,Mostly Cloudy,320,2013-01-12 23:53:00
7:53 PM,7.0,-0.0,73,30.26,10.0,NW,11.5,-,N/A,,Overcast,310,2013-01-13 01:53:00
8:53 PM,8.1,-0.0,70,30.28,10.0,NW,10.4,-,N/A,,Overcast,310,2013-01-13 02:53:00
9:53 PM,7.0,1.0,77,30.28,10.0,NW,9.2,-,N/A,,Overcast,310,2013-01-13 03:53:00
10:53 PM,7.0,1.0,77,30.27,10.0,NW,12.7,-,N/A,,Overcast,310,2013-01-13 04:53:00
11:53 PM,6.1,-0.0,76,30.27,10.0,NW,10.4,-,N/A,,Overcast,320,2013-01-13 05:53:00